Regional Weather Roundup
Issued by NWS Cleveland, OH

Home | Current Version | Previous Version | Text Only | Print | Product List | Glossary Off
Versions: 1 2 3 4 5 6 7 8 9 10 11 12 13 14 15 16 17 18 19 20 21 22 23 24 25 26 27 28 29 30 31 32 33 34 35 36 37 38 39 40 41 42 43 44 45 46 47 48 49 50

826
ASUS41 KCLE 230100
RWRCLE
OHIO REGIONAL WEATHER ROUNDUP
NATIONAL WEATHER SERVICE WILMINGTON, OH
900 PM EDT TUE MAY 22 2018

NOTE: "FAIR" INDICATES FEW OR NO CLOUDS BELOW 12,000 FEET WITH NO
SIGNIFICANT WEATHER AND/OR OBSTRUCTIONS TO VISIBILITY.

OHZ001>008-015>018-024>027-034-035-043-044-230200-
   NORTHWEST OHIO

CITY           SKY/WX    TMP DP  RH WIND       PRES   REMARKS
DEFIANCE       CLOUDY    68  59  73 NW13      30.00R
FINDLAY        FAIR      70  60  70 NW9       29.98R
TOLEDO EXPRESS MOCLDY    66  60  81 N13G18    29.99R
TOLEDO EXEC    CLOUDY    67  58  72 N13       30.00R
LIMA           FAIR      69  61  75 N8        30.00R
$$

OHZ009>014-019>023-028>033-038-089-230200-
   NORTHEAST OHIO

CITY           SKY/WX    TMP DP  RH WIND       PRES   REMARKS
CLE-HOPKINS    CLOUDY    64  61  90 N10       29.98R FOG
CLE-LAKEFRONT  FOG       59  57  93 N8        29.95S VSB 3/4
CUY CO. ARPT   CLOUDY    64  63  94 MISG      29.97R FOG
LORAIN-ELYRIA  FAIR      64  58  80 N8        29.97R
ASHTABULA      FAIR      63  61  93 CALM      29.96R FOG
AKRON-CANTON   FAIR      67  63  87 S5        29.95S
WOOSTER        NOT AVBL
MANSFIELD      FAIR      71  62  73 W5        29.97R
YOUNGSTOWN     MOCLDY    67  65  93 SW8       29.93F
$$

OHZ042-051>053-060>062-070>072-077>081-230200-
  SOUTHWEST OHIO

CITY           SKY/WX    TMP DP  RH WIND       PRES   REMARKS
CINC-COVINGTON MOCLDY    71  63  75 S5        29.97R
CINC-LUNKEN    MOCLDY    68  67  96 CALM      29.97F
HAMILTON       MOCLDY    78  67  68 N6        29.98R
DAYTON         NOT AVBL
WRIGHT-PAT AFB MOCLDY    76  61  60 NW7       29.97R
DAYTON GENERAL MOCLDY    77  62  59 N10       29.97R
WILMINGTON     MOCLDY    72  69  90 SW6       29.96S
$$

OHZ036-037-039>041-045>050-054>059-063>069-073>076-082>088-230200-
  CENTRAL AND SOUTHEAST OHIO

CITY           SKY/WX    TMP DP  RH WIND       PRES   REMARKS
COLUMBUS       FAIR      73  65  75 N8        29.95S
OSU AIRPORT    FAIR      71  65  81 N6        29.96R
BOLTON FIELD   NOT AVBL
RICKENBACK AFB NOT AVBL
NEWARK         MOCLDY    70  68  93 SW5       29.96R
MARION         FAIR      71  60  68 NW7       29.98R
LANCASTER      MOCLDY    70  68  93 NE3       29.96F THUNDER
ZANESVILLE     MOCLDY    69  65  86 N3        29.95S
NEW PHILLY     NOT AVBL
$$




USA.gov is the U.S. government's official web portal to all federal, state and local government web resources and services.